Penn Yan, NY

10:43 AM EST on February 23, 2017 (GMT -0500)
Penn Yan

Weather History for KPEO - November, 2012

Change the Weather History Date:

Monday, November 5, 2012

  Actual Average (KITH) Record (KITH)
Temperature  
Mean Temperature 34 °F -  
Max Temperature 36 °F 50 °F 72 °F (1987)
Min Temperature 33 °F 34 °F 15 °F (1991)
Degree Days  
Heating Degree Days 30    
Moisture  
Dew Point 25 °F    
Average Humidity 70    
Maximum Humidity 85    
Minimum Humidity 56    
Precipitation  
Precipitation 0.00 in - - ()
Sea Level Pressure  
Sea Level Pressure 30.13 in    
Wind  
Wind Speed 6 mph (NW)    
Max Wind Speed 10 mph    
Max Gust Speed -    
Visibility 10 miles    
Events      
Averages and records for this station are not official NWS values.
T = Trace of Precipitation, MM = Missing Value Source: NWS Daily Summary

Daily Weather History Graph

Daily Weather History Graph

Search for Another Location

Airport or City:

Trip Planner

Search our weather history database for the weather conditions in past years. The results will help you decide how hot, cold, wet, or windy it might be!

Date:

Astronomy

Nov. 05, 2012 Rise Set
Actual Time 6:47 AM EST 4:55 PM EST
Civil Twilight 6:17 AM EST 5:25 PM EST
Nautical Twilight 5:44 AM EST 5:58 PM EST
Astronomical Twilight 5:11 AM EST 6:31 PM EST
Moon 10:31 PM EST (11/5) 12:06 PM EST (11/5)
Length of Visible Light 11h 07m
Length of Day
10h 07m
Waning Gibbous, 63% of the Moon is Illuminated
Nov 5
Waning Gibbous
Nov 6
Last Quarter
Nov 13
New
Nov 20
First Quarter
Nov 28
Full

Hourly Weather History & Observations

Time (EST) Temp. Windchill Dew Point Humidity Pressure Visibility Wind Dir Wind Speed Gust Speed Precip Events Conditions
12:32 AM 33.8 °F 28.6 °F 24.8 °F 70% 30.05 in 10.0 mi WNW 5.8 mph - N/A   Overcast
12:53 AM 34.0 °F 29.8 °F 26.1 °F 73% 30.08 in 10.0 mi WNW 4.6 mph - N/A   Overcast
1:37 AM 33.8 °F 27.7 °F 26.6 °F 75% 30.05 in 10.0 mi NW 6.9 mph - N/A   Overcast
1:53 AM 34.0 °F 28.0 °F 26.1 °F 73% 30.08 in 10.0 mi NW 6.9 mph - N/A   Overcast
2:36 AM 33.8 °F 27.0 °F 26.6 °F 75% 30.04 in 10.0 mi NW 8.1 mph - N/A   Overcast
2:53 AM 34.0 °F 28.0 °F 28.0 °F 79% 30.07 in 10.0 mi NW 6.9 mph - N/A   Overcast
3:53 AM 33.1 °F 28.7 °F 28.0 °F 82% 30.08 in 10.0 mi WNW 4.6 mph - N/A   Overcast
4:04 AM 33.8 °F 29.6 °F 28.4 °F 81% 30.05 in 10.0 mi NW 4.6 mph - N/A   Overcast
4:34 AM 33.8 °F 27.0 °F 28.4 °F 81% 30.06 in 10.0 mi NW 8.1 mph - N/A   Overcast
4:53 AM 33.1 °F 26.1 °F 28.9 °F 85% 30.09 in 10.0 mi NW 8.1 mph - N/A   Overcast
5:53 AM 33.1 °F 27.7 °F 27.0 °F 78% 30.10 in 10.0 mi NNW 5.8 mph - N/A   Overcast
6:53 AM 34.0 °F 27.2 °F 27.0 °F 75% 30.11 in 10.0 mi NW 8.1 mph - N/A   Overcast
7:53 AM 34.0 °F 28.8 °F 27.0 °F 75% 30.13 in 10.0 mi Variable 5.8 mph - N/A   Overcast
8:53 AM 35.1 °F 28.6 °F 26.1 °F 70% 30.14 in 10.0 mi NW 8.1 mph - N/A   Overcast
9:53 AM 35.1 °F 28.6 °F 26.1 °F 70% 30.14 in 10.0 mi NW 8.1 mph - N/A   Overcast
10:53 AM 36.0 °F 29.6 °F 26.1 °F 67% 30.15 in 10.0 mi NW 8.1 mph - N/A   Overcast
11:08 AM 35.6 °F 28.0 °F 26.6 °F 70% 30.12 in 10.0 mi NNW 10.4 mph - N/A   Overcast
11:53 AM 35.1 °F 30.1 °F 26.1 °F 70% 30.15 in 10.0 mi Variable 5.8 mph - N/A   Overcast
12:53 PM 34.0 °F 29.8 °F 28.0 °F 79% 30.15 in 10.0 mi Variable 4.6 mph - N/A   Overcast
1:17 PM 33.8 °F 30.8 °F 26.6 °F 75% 30.11 in 10.0 mi NE 3.5 mph - N/A   Overcast
1:53 PM 35.1 °F 32.2 °F 28.0 °F 76% 30.14 in 10.0 mi NE 3.5 mph - N/A   Overcast
2:53 PM 34.0 °F 31.0 °F 28.0 °F 79% 30.15 in 10.0 mi ENE 3.5 mph - N/A   Overcast
3:53 PM 35.1 °F 29.3 °F 21.9 °F 59% 30.15 in 10.0 mi NW 6.9 mph - N/A   Overcast
4:53 PM 34.0 °F 28.8 °F 21.0 °F 59% 30.17 in 10.0 mi Variable 5.8 mph - N/A   Overcast
5:53 PM 33.1 °F 30.0 °F 19.9 °F 59% 30.18 in 10.0 mi NNW 3.5 mph - N/A   Overcast
6:53 PM 33.1 °F 26.9 °F 19.0 °F 56% 30.19 in 10.0 mi NW 6.9 mph - N/A   Overcast
7:53 PM 33.1 °F 26.9 °F 19.9 °F 59% 30.21 in 10.0 mi NW 6.9 mph - N/A   Overcast
8:53 PM 33.1 °F 30.0 °F 19.0 °F 56% 30.21 in 10.0 mi WNW 3.5 mph - N/A   Overcast
9:53 PM 33.1 °F 30.0 °F 19.0 °F 56% 30.22 in 10.0 mi NW 3.5 mph - N/A   Overcast
10:53 PM 33.1 °F 28.7 °F 19.9 °F 59% 30.20 in 10.0 mi West 4.6 mph - N/A   Overcast
11:53 PM 33.1 °F 28.7 °F 19.9 °F 59% 30.21 in 10.0 mi West 4.6 mph - N/A   Overcast